Погода в Мули

Мальдивы     2°55′15″N   73°34′50″E
темп.,
°C
ветер,
м/с
пор.,
м/с
влажн.,
%
обл.,
%
осадки,
мм/ч
давл.,
гПа
погр.,
м
10 августа, ср
ср1023:00+28зюз4578100 0.2 1009750
02:00+27з4579100 0.4 1008703
05:00+27з3477100 1.8 1008617
08:00+27зсз3476100 0.6 1009555
11:00+28сз347491 0.6 1009627
14:00+28сз4474100 0.0 1006689
17:00+28сз447532 0.0 1007748
20:00+28сз347640 0.0 1008777
11 августа, чт
чт1123:00+27сз22795 0.8 1009143
02:00+27сз22785 0.8 1008385
05:00+27сз22794 2.0 1008151
08:00+27ссз11755 0.5 1010350
11:00+27ссв117437 0.5 1009500
14:00+28всв11725 0.0 1008644
17:00+28с1271100 0.0 1008668
20:00+28ссв11725 0.0 1010574
12 августа, пт
пт1223:00+27вюв227542 0.3 1011262
02:00+27вюв227617 0.3 1009565
05:00+27вюв337646 0.3 1009616
08:00+27в227612 0.0 1011568
11:00+28вюв327615 0.0 1010658
14:00+28вюв227425 0.0 1008721
17:00+28всв22736 0.1 1008474
20:00+28всв22745 0.1 1010656
13 августа, сб
сб1323:00+28в337532 0.1 1011613
02:00+27в2377100 0.8 1009571
05:00+27вюв3378100 1.4 1009509
08:00+27вюв2277100 0.1 1010496
11:00+27вюв2275100 0.1 1010555
14:00+27в117394 0.0 1008635
17:00+28в2272100 0.0 1009728
20:00+28в1173100 0.0 1010619
14 августа, вс
вс1423:00+27всв1174100 0.0 1010552
02:00+27в117581 0.0 1009554
05:00+27в227630 0.3 1009523
08:00+27всв227520 0.0 1011482
11:00+27всв227419 0.0 1011597
14:00+28св227233 0.0 1009617
17:00+28всв2272100 0.0 1009733
20:00+28всв2273100 0.0 1010729